• In Deutschland
  • Länderverzeichnis
  • Für 7 Tage
  • Wassertemperatur
  • Satellitenkarten
  • Wetterkarte
  • Widgets
  • user-avatar
    Anmelden

    Stündliche Wetter Stadtallendorf

    Heute, 27 April, Freitag

    Zeit Temperatur Niederschläge Wind Luftdruck Luftfeuchtigkeit
    00:00 +5°C° 0 mm 1 m/S 739 mmHg 87%
    01:00 +5°C° 0 mm 1 m/S 739 mmHg 89%
    02:00 +5°C° 0 mm 1 m/S 739 mmHg 89%
    03:00 +5°C° 0 mm 1 m/S 739 mmHg 90%
    04:00 +4°C° 0 mm 1 m/S 738 mmHg 91%
    05:00 +5°C° 0 mm 1 m/S 738 mmHg 87%
    06:00 +7°C° 0 mm 1 m/S 738 mmHg 83%
    07:00 +8°C° 0 mm 1 m/S 738 mmHg 79%
    08:00 +10°C° 0 mm 1 m/S 738 mmHg 70%
    09:00 +12°C° 0 mm 2 m/S 737 mmHg 62%
    10:00 +14°C° 0 mm 2 m/S 737 mmHg 54%
    11:00 +14°C° 0 mm 3 m/S 737 mmHg 51%
    12:00 +16°C° 0 mm 3 m/S 736 mmHg 49%
    13:00 +16°C° 0 mm 3 m/S 736 mmHg 46%
    14:00 +17°C° 0 mm 3 m/S 735 mmHg 47%
    15:00 +17°C° 0 mm 3 m/S 734 mmHg 48%
    16:00 +18°C° 0 mm 3 m/S 733 mmHg 49%
    17:00 +17°C° 0 mm 2 m/S 733 mmHg 57%
    18:00 +15°C° 0 mm 2 m/S 733 mmHg 64%
    19:00 +14°C° 0 mm 1 m/S 732 mmHg 72%
    20:00 +13°C° 0 mm 1 m/S 733 mmHg 75%
    21:00 +12°C° 0 mm 1 m/S 733 mmHg 79%
    22:00 +11°C° 0 mm 1 m/S 733 mmHg 82%
    23:00 +9°C° 0 mm 2 m/S 733 mmHg 85%

    Morgen, 28 April, Samstag

    Zeit Temperatur Niederschläge Wind Luftdruck Luftfeuchtigkeit
    00:00 +9°C° 0 mm 2 m/S 733 mmHg 88%
    01:00 +9°C° 0 mm 2 m/S 733 mmHg 92%
    02:00 +8°C° 0 mm 2 m/S 733 mmHg 93%
    03:00 +8°C° 0 mm 2 m/S 734 mmHg 94%
    04:00 +8°C° 0 mm 3 m/S 734 mmHg 95%
    05:00 +8°C° 0 mm 3 m/S 734 mmHg 91%
    06:00 +8°C° 0 mm 4 m/S 735 mmHg 87%
    07:00 +8°C° 0 mm 4 m/S 735 mmHg 84%
    08:00 +9°C° 0 mm 5 m/S 735 mmHg 77%
    09:00 +10°C° 0 mm 5 m/S 736 mmHg 70%
    10:00 +12°C° 0 mm 5 m/S 736 mmHg 64%
    11:00 +14°C° 0 mm 5 m/S 736 mmHg 59%
    12:00 +15°C° 0 mm 5 m/S 736 mmHg 54%
    13:00 +17°C° 0 mm 4 m/S 735 mmHg 50%
    14:00 +18°C° 0 mm 4 m/S 735 mmHg 49%
    15:00 +18°C° 0 mm 4 m/S 735 mmHg 48%
    16:00 +18°C° 0 mm 3 m/S 734 mmHg 48%
    17:00 +17°C° 0 mm 3 m/S 734 mmHg 55%
    18:00 +15°C° 0 mm 2 m/S 734 mmHg 62%
    19:00 +14°C° 0 mm 1 m/S 734 mmHg 69%
    20:00 +13°C° 0,1 mm 1 m/S 734 mmHg 72%
    21:00 +13°C° 0,1 mm 1 m/S 735 mmHg 75%
    22:00 +12°C° 0,1 mm 1 m/S 735 mmHg 78%
    23:00 +10°C° 0 mm 0 m/S 735 mmHg 80%

    übermorgen, 29 April, Sonntag

    Zeit Temperatur Niederschläge Wind Luftdruck Luftfeuchtigkeit
    00:00 +10°C° 0 mm 0 m/S 735 mmHg 83%
    01:00 +9°C° 0 mm 0 m/S 734 mmHg 86%
    02:00 +9°C° 0 mm 0 m/S 734 mmHg 86%
    03:00 +9°C° 0 mm 0 m/S 734 mmHg 86%
    04:00 +10°C° 0 mm 1 m/S 733 mmHg 87%
    05:00 +10°C° 0 mm 1 m/S 733 mmHg 85%
    06:00 +11°C° 0 mm 1 m/S 733 mmHg 83%
    07:00 +12°C° 0 mm 1 m/S 733 mmHg 82%
    08:00 +15°C° 0 mm 1 m/S 733 mmHg 76%
    09:00 +17°C° 0 mm 2 m/S 733 mmHg 71%
    10:00 +19°C° 0 mm 2 m/S 732 mmHg 65%
    11:00 +21°C° 0 mm 2 m/S 732 mmHg 61%
    12:00 +23°C° 0 mm 2 m/S 731 mmHg 58%
    13:00 +24°C° 0 mm 2 m/S 731 mmHg 54%
    14:00 +24°C° 0,9 mm 3 m/S 730 mmHg 59%
    15:00 +24°C° 0,9 mm 3 m/S 729 mmHg 64%
    16:00 +24°C° 0,9 mm 3 m/S 728 mmHg 69%
    17:00 +21°C° 1,2 mm 3 m/S 728 mmHg 75%
    18:00 +20°C° 1,2 mm 3 m/S 727 mmHg 80%
    19:00 +18°C° 1,2 mm 3 m/S 726 mmHg 85%
    20:00 +17°C° 1,2 mm 3 m/S 726 mmHg 88%
    21:00 +17°C° 1,2 mm 3 m/S 725 mmHg 91%
    22:00 +15°C° 1,2 mm 4 m/S 725 mmHg 93%
    23:00 +14°C° 0,9 mm 4 m/S 725 mmHg 93%

    30 April, Montag

    Zeit Temperatur Niederschläge Wind Luftdruck Luftfeuchtigkeit
    00:00 +13°C° 0,9 mm 4 m/S 726 mmHg 92%
    01:00 +12°C° 0,9 mm 5 m/S 726 mmHg 92%
    02:00 +10°C° 0 mm 5 m/S 726 mmHg 91%
    03:00 +9°C° 0 mm 5 m/S 727 mmHg 90%
    04:00 +8°C° 0 mm 6 m/S 728 mmHg 89%
    05:00 +8°C° 0 mm 6 m/S 728 mmHg 87%
    06:00 +8°C° 0 mm 6 m/S 728 mmHg 85%
    07:00 +8°C° 0 mm 6 m/S 728 mmHg 82%
    08:00 +8°C° 0 mm 7 m/S 729 mmHg 79%
    09:00 +9°C° 0 mm 7 m/S 729 mmHg 75%
    10:00 +9°C° 0 mm 8 m/S 730 mmHg 71%
    11:00 +9°C° 0 mm 8 m/S 730 mmHg 70%
    12:00 +9°C° 0 mm 8 m/S 731 mmHg 69%
    13:00 +9°C° 0 mm 8 m/S 731 mmHg 67%
    14:00 +9°C° 0 mm 8 m/S 731 mmHg 65%
    15:00 +10°C° 0 mm 8 m/S 732 mmHg 63%
    16:00 +10°C° 0 mm 8 m/S 732 mmHg 61%
    17:00 +9°C° 0 mm 7 m/S 732 mmHg 63%
    18:00 +9°C° 0 mm 6 m/S 733 mmHg 66%
    19:00 +8°C° 0 mm 5 m/S 733 mmHg 68%
    20:00 +7°C° 0 mm 4 m/S 733 mmHg 72%
    21:00 +6°C° 0 mm 4 m/S 734 mmHg 75%
    22:00 +5°C° 0 mm 3 m/S 734 mmHg 79%
    23:00 +4°C° 0 mm 3 m/S 734 mmHg 81%

    1 Mai, Dienstag

    Zeit Temperatur Niederschläge Wind Luftdruck Luftfeuchtigkeit
    00:00 +4°C° 0 mm 3 m/S 734 mmHg 83%
    01:00 +3°C° 0 mm 3 m/S 734 mmHg 86%
    02:00 +3°C° 0 mm 3 m/S 734 mmHg 87%
    03:00 +2°C° 0 mm 3 m/S 735 mmHg 88%
    04:00 +3°C° 0 mm 2 m/S 735 mmHg 89%
    05:00 +2°C° 0 mm 3 m/S 735 mmHg 84%
    06:00 +3°C° 0 mm 3 m/S 735 mmHg 78%
    07:00 +4°C° 0 mm 3 m/S 736 mmHg 72%
    08:00 +7°C° 0 mm 3 m/S 736 mmHg 66%
    09:00 +9°C° 0 mm 3 m/S 736 mmHg 59%
    10:00 +10°C° 0 mm 3 m/S 737 mmHg 52%
    11:00 +11°C° 0 mm 3 m/S 737 mmHg 50%
    12:00 +12°C° 0 mm 3 m/S 737 mmHg 47%
    13:00 +13°C° 0 mm 3 m/S 737 mmHg 45%
    14:00 +13°C° 0 mm 3 m/S 737 mmHg 46%
    15:00 +13°C° 0 mm 3 m/S 737 mmHg 47%
    16:00 +13°C° 0 mm 3 m/S 737 mmHg 48%
    17:00 +13°C° 0 mm 2 m/S 737 mmHg 54%
    18:00 +12°C° 0 mm 2 m/S 738 mmHg 61%
    19:00 +11°C° 0 mm 1 m/S 738 mmHg 67%
    20:00 +10°C° 0 mm 1 m/S 738 mmHg 72%
    21:00 +8°C° 0 mm 1 m/S 739 mmHg 77%
    22:00 +7°C° 0 mm 1 m/S 739 mmHg 81%
    23:00 +6°C° 0 mm 1 m/S 739 mmHg 83%

    2 Mai, Mittwoch

    Zeit Temperatur Niederschläge Wind Luftdruck Luftfeuchtigkeit
    00:00 +6°C° 0 mm 1 m/S 739 mmHg 85%
    01:00 +5°C° 0 mm 1 m/S 740 mmHg 87%
    02:00 +5°C° 0 mm 1 m/S 740 mmHg 89%
    03:00 +4°C° 0 mm 1 m/S 740 mmHg 90%
    04:00 +4°C° 0 mm 1 m/S 740 mmHg 91%
    05:00 +5°C° 0 mm 1 m/S 740 mmHg 87%
    06:00 +6°C° 0 mm 1 m/S 741 mmHg 82%
    07:00 +8°C° 0 mm 1 m/S 741 mmHg 77%
    08:00 +8°C° 0 mm 2 m/S 741 mmHg 72%
    09:00 +9°C° 0 mm 2 m/S 741 mmHg 67%
    10:00 +12°C° 0 mm 2 m/S 741 mmHg 62%
    11:00 +12°C° 0,1 mm 2 m/S 741 mmHg 62%
    12:00 +12°C° 0,1 mm 3 m/S 741 mmHg 62%
    13:00 +12°C° 0,1 mm 3 m/S 741 mmHg 62%
    14:00 +12°C° 0 mm 3 m/S 740 mmHg 63%
    15:00 +12°C° 0 mm 3 m/S 740 mmHg 65%
    16:00 +12°C° 0 mm 3 m/S 740 mmHg 67%
    17:00 +11°C° 0,1 mm 3 m/S 740 mmHg 72%
    18:00 +10°C° 0,1 mm 2 m/S 740 mmHg 78%
    19:00 +9°C° 0,1 mm 2 m/S 740 mmHg 83%
    20:00 +9°C° 0 mm 2 m/S 740 mmHg 85%
    21:00 +8°C° 0 mm 2 m/S 741 mmHg 87%
    22:00 +8°C° 0 mm 2 m/S 741 mmHg 89%
    23:00 +7°C° 0 mm 2 m/S 741 mmHg 88%
    Mehr zeigen